Weather History for KMLS - March, 2013

Change the Weather History Date:

Sunday, March 24, 2013

  Actual Average Record
Temperature  
Mean Temperature 19 °F 38 °F  
Max Temperature 26 °F 50 °F 78 °F (1993)
Min Temperature 12 °F 26 °F -13 °F (1964)
Degree Days  
Heating Degree Days 46 27  
Month to date heating degree days 800 762  
Since 1 July heating degree days 5994 6496  
Cooling Degree Days 0 0  
Month to date cooling degree days 0 0  
Year to date cooling degree days 0 0  
Moisture  
Dew Point 11 °F    
Average Humidity 71    
Maximum Humidity 84    
Minimum Humidity 57    
Precipitation  
Precipitation T in 0.02 in 1.40 in (1942)
Month to date precipitation 0.37 0.41  
Year to date precipitation 0.56 0.96  
Sea Level Pressure  
Sea Level Pressure 30.37 in    
Wind  
Wind Speed 8 mph (NNW)    
Max Wind Speed 16 mph    
Max Gust Speed 20 mph    
Visibility 7 miles    
Events Snow    
T = Trace of Precipitation, MM = Missing Value Source: NWS Daily Summary

Daily Weather History Graph

Daily Weather History Graph

Search for Another Location

Airport or City:

Trip Planner

Search our weather history database for the weather conditions in past years. The results will help you decide how hot, cold, wet, or windy it might be!

Date:

Astronomy

Mar. 24, 2013 Rise Set
Actual Time 6:58 AM MDT 7:22 PM MDT
Civil Twilight 6:27 AM MDT 7:52 PM MDT
Nautical Twilight 5:52 AM MDT 8:27 PM MDT
Astronomical Twilight 5:15 AM MDT 9:04 PM MDT
Moon 4:46 PM MDT (3/24) 5:18 AM MDT (3/24)
Length of Visible Light 13h 24m
Length of Day
12h 23m
Waxing Gibbous, 92% of the Moon is Illuminated
Mar 24
Waxing Gibbous
Mar 27
Full
Apr 2
Last Quarter
Apr 10
New
Apr 18
First Quarter

Hourly Weather History & Observations

Time (MDT) Temp. Windchill Dew Point Humidity Pressure Visibility Wind Dir Wind Speed Gust Speed Precip Events Conditions
12:00 AM 17.6 °F 12.3 °F 12.2 °F 79% 30.26 in 4.0 mi NNW 3.5 mph - 0.00 in Snow Light Snow
12:53 AM 16.0 °F 10.4 °F 12.9 °F 88% 30.38 in 4.0 mi WNW 3.5 mph - 0.00 in   Overcast
1:14 AM 17.6 °F 7.3 °F 12.2 °F 79% 30.26 in 2.0 mi NNW 8.1 mph - 0.00 in Snow Light Snow
1:32 AM 17.6 °F 7.3 °F 12.2 °F 79% 30.26 in 1.5 mi NNW 8.1 mph - 0.00 in Snow Light Snow
1:53 AM 17.1 °F 5.8 °F 12.9 °F 84% 30.37 in 2.0 mi NNW 9.2 mph - 0.00 in Snow Light Snow
2:04 AM 17.6 °F 8.2 °F 12.2 °F 79% 30.25 in 4.0 mi NNW 6.9 mph - 0.00 in Snow Light Snow
2:16 AM 17.6 °F 7.3 °F 12.2 °F 79% 30.25 in 2.5 mi NW 8.1 mph - 0.00 in Snow Light Snow
2:27 AM 17.6 °F 7.3 °F 12.2 °F 79% 30.25 in 3.0 mi NW 8.1 mph - 0.00 in Snow Light Snow
2:40 AM 17.6 °F 6.4 °F 12.2 °F 79% 30.25 in 2.0 mi NW 9.2 mph - 0.00 in Snow Light Snow
2:53 AM 17.1 °F 6.6 °F 12.9 °F 84% 30.37 in 3.0 mi NNW 8.1 mph - 0.00 in Snow Light Snow
3:53 AM 15.1 °F 5.2 °F 10.0 °F 80% 30.36 in 9.0 mi North 6.9 mph - 0.00 in   Overcast
4:53 AM 14.0 °F 3.9 °F 9.0 °F 80% 30.38 in 10.0 mi North 6.9 mph - 0.00 in   Overcast
5:53 AM 12.9 °F 2.6 °F 8.1 °F 81% 30.39 in 10.0 mi NNW 6.9 mph - N/A   Overcast
6:53 AM 12.9 °F 0.7 °F 8.1 °F 81% 30.40 in 7.0 mi NNW 9.2 mph - 0.00 in Snow Light Snow
7:53 AM 12.9 °F -0.9 °F 8.1 °F 81% 30.42 in 10.0 mi NNW 11.5 mph - N/A   Overcast
8:23 AM 12.2 °F -2.5 °F 8.6 °F 85% 30.29 in 10.0 mi NNW 12.7 mph - N/A   Overcast
8:53 AM 14.0 °F -0.8 °F 8.1 °F 77% 30.43 in 6.0 mi NNW 13.8 mph - N/A   Haze
9:31 AM 15.8 °F 2.7 °F 8.6 °F 73% 30.30 in 5.0 mi NNW 11.5 mph - N/A   Haze
9:42 AM 15.8 °F 2.1 °F 8.6 °F 73% 30.30 in 3.0 mi NW 12.7 mph - N/A   Haze
9:53 AM 16.0 °F 1.7 °F 9.0 °F 74% 30.43 in 2.5 mi NNW 13.8 mph - 0.00 in Snow Light Snow
10:10 AM 15.8 °F 2.1 °F 8.6 °F 73% 30.30 in 3.0 mi NW 12.7 mph - 0.00 in Snow Light Snow
10:53 AM 18.0 °F 5.4 °F 10.0 °F 71% 30.44 in 10.0 mi NW 11.5 mph - 0.00 in   Overcast
11:53 AM 19.0 °F 6.1 °F 10.9 °F 71% 30.45 in 7.0 mi NW 12.7 mph - 0.00 in   Overcast
12:53 PM 21.0 °F 8.1 °F 12.0 °F 68% 30.44 in 5.0 mi NW 13.8 mph - 0.00 in Snow Light Snow
1:53 PM 23.0 °F 10.1 °F 12.9 °F 65% 30.43 in 10.0 mi NNW 15.0 mph - 0.00 in   Overcast
2:53 PM 24.1 °F 12.0 °F 14.0 °F 65% 30.43 in 10.0 mi NW 13.8 mph - 0.00 in   Overcast
3:53 PM 23.0 °F 12.4 °F 12.9 °F 65% 30.44 in 9.0 mi NNW 10.4 mph - 0.00 in   Overcast
4:53 PM 26.1 °F 15.6 °F 14.0 °F 60% 30.44 in 10.0 mi NNW 11.5 mph - 0.00 in   Overcast
5:53 PM 23.0 °F 13.1 °F 12.0 °F 63% 30.45 in 10.0 mi NNW 9.2 mph - N/A   Overcast
6:53 PM 21.9 °F 13.4 °F 12.0 °F 66% 30.45 in 10.0 mi NNW 6.9 mph - N/A   Mostly Cloudy
7:08 PM 21.2 °F 13.6 °F 12.2 °F 68% 30.32 in 10.0 mi NNW 5.8 mph - N/A   Scattered Clouds
7:18 PM 21.2 °F 12.6 °F 12.2 °F 68% 30.32 in 10.0 mi NNW 6.9 mph - N/A   Mostly Cloudy
7:53 PM 19.9 °F 13.4 °F 12.0 °F 71% 30.46 in 10.0 mi NNW 4.6 mph - N/A   Overcast
8:13 PM 17.6 °F 12.3 °F 10.4 °F 73% 30.33 in 10.0 mi NNW 3.5 mph - N/A   Scattered Clouds
8:53 PM 17.1 °F 8.7 °F 10.9 °F 77% 30.46 in 10.0 mi NNE 5.8 mph - N/A   Clear
9:53 PM 15.1 °F - 10.0 °F 80% 30.46 in 10.0 mi Calm Calm - N/A   Clear
10:53 PM 16.0 °F - 10.0 °F 77% 30.46 in 10.0 mi Calm Calm - N/A   Clear
11:53 PM 15.1 °F - 9.0 °F 77% 30.46 in 10.0 mi Calm Calm - N/A   Clear